TimeCXT,TemperatureF,Dew PointF,Humidity,Sea Level PressureIn,VisibilityMPH,Wind Direction,Wind SpeedMPH,Gust SpeedMPH,PrecipitationIn,Events,Conditions,WindDirDegrees,DateUTC
12:00 AM,75,69,75,29.85,,SE,12.7,,,,,130,2012-11-07 17:00:00
12:00 AM,75.2,68.0,78,29.89,6.2,SE,12.7,-,N/A,,Scattered Clouds,130,2012-11-07 17:00:00
1:00 AM,76,69,74,29.84,,SE,12.7,,,,,130,2012-11-07 18:00:00
1:00 AM,75.2,69.8,83,29.86,6.2,SE,12.7,-,N/A,,Mostly Cloudy,130,2012-11-07 18:00:00
2:00 AM,75.2,68.0,78,29.86,6.2,SE,12.7,-,N/A,,Mostly Cloudy,130,2012-11-07 19:00:00
3:00 AM,76,67,66,29.82,,SE,12.7,,,,,130,2012-11-07 20:00:00
3:00 AM,75.2,66.2,73,29.86,6.2,SE,12.7,-,N/A,,Mostly Cloudy,130,2012-11-07 20:00:00
4:00 AM,75,66,65,29.82,,SE,11.5,,,,,130,2012-11-07 21:00:00
4:00 AM,75.2,66.2,73,29.86,6.2,SE,11.5,-,N/A,,Mostly Cloudy,130,2012-11-07 21:00:00
5:00 AM,75.2,71.6,89,29.86,6.2,SE,12.7,-,N/A,,Unknown,130,2012-11-07 22:00:00
6:00 AM,76,75,96,29.85,,ESE,10.4,,,,,120,2012-11-07 23:00:00
6:00 AM,75.2,75.2,100,29.89,6.2,ESE,10.4,-,N/A,,Scattered Clouds,120,2012-11-07 23:00:00
7:00 AM,78,78,99,29.85,,SE,13.8,,,,,130,2012-11-08 00:00:00
7:00 AM,78.8,77.0,94,29.89,6.2,SE,13.8,-,N/A,,Scattered Clouds,130,2012-11-08 00:00:00
8:00 AM,77.0,77.0,100,29.89,6.2,ESE,15.0,-,N/A,,Overcast,120,2012-11-08 01:00:00
9:00 AM,79,79,100,29.87,,ESE,16.1,,,,Overcast,120,2012-11-08 02:00:00
9:00 AM,78.8,78.8,100,29.89,6.2,ESE,16.1,-,N/A,,Overcast,120,2012-11-08 02:00:00
10:00 AM,81,81,100,29.86,,ESE,17.3,,,,,120,2012-11-08 03:00:00
10:00 AM,80.6,80.6,100,29.89,6.2,ESE,17.3,-,N/A,,Unknown,120,2012-11-08 03:00:00
11:00 AM,82.4,82.4,100,29.89,6.2,ESE,15.0,-,N/A,,Overcast,110,2012-11-08 04:00:00
12:00 PM,81,81,100,29.82,,ESE,16.1,,,,,120,2012-11-08 05:00:00
12:00 PM,80.6,80.6,100,29.86,6.2,ESE,16.1,-,N/A,,Scattered Clouds,120,2012-11-08 05:00:00
1:00 PM,82,82,98,29.79,,ESE,15.0,,,,,110,2012-11-08 06:00:00
1:00 PM,82.4,82.4,100,29.83,6.2,ESE,15.0,-,N/A,,Scattered Clouds,110,2012-11-08 06:00:00
2:00 PM,82.4,82.4,100,29.83,6.2,SE,13.8,-,N/A,,Mostly Cloudy,130,2012-11-08 07:00:00
3:00 PM,80,80,99,29.77,,SE,16.1,,,,,130,2012-11-08 08:00:00
3:00 PM,80.6,80.6,100,29.80,6.2,SE,16.1,-,N/A,,Scattered Clouds,130,2012-11-08 08:00:00
4:00 PM,80,80,99,29.77,,SE,16.1,,,,,140,2012-11-08 09:00:00
4:00 PM,80.6,80.6,100,29.80,6.2,SE,16.1,-,N/A,,Mostly Cloudy,140,2012-11-08 09:00:00
5:00 PM,78.8,78.8,100,29.83,6.2,SE,13.8,-,N/A,,Scattered Clouds,130,2012-11-08 10:00:00
6:00 PM,77,76,94,29.80,,SE,12.7,,,,,140,2012-11-08 11:00:00
6:00 PM,77.0,75.2,94,29.83,6.2,SE,12.7,-,N/A,,Scattered Clouds,130,2012-11-08 11:00:00
7:00 PM,77,77,99,29.82,,SE,11.5,,,,,140,2012-11-08 12:00:00
7:00 PM,77.0,77.0,100,29.86,6.2,SE,11.5,-,N/A,,Mostly Cloudy,140,2012-11-08 12:00:00
8:00 PM,77.0,77.0,100,29.86,6.2,SE,12.7,-,N/A,,Mostly Cloudy,140,2012-11-08 13:00:00
9:00 PM,76,64,57,29.85,,SE,11.5,,,,,140,2012-11-08 14:00:00
9:00 PM,77.0,64.4,65,29.89,6.2,SE,11.5,-,N/A,,Scattered Clouds,140,2012-11-08 14:00:00
10:00 PM,76,64,57,29.85,,SE,11.5,,,,,130,2012-11-08 15:00:00
10:00 PM,77.0,64.4,65,29.89,6.2,SE,11.5,-,N/A,,Scattered Clouds,130,2012-11-08 15:00:00
11:00 PM,77.0,77.0,100,29.89,6.2,SE,11.5,-,N/A,,Scattered Clouds,140,2012-11-08 16:00:00
11:52 PM,77.0,77.0,100,29.86,6.2,SE,10.4,-,N/A,,Mostly Cloudy,140,2012-11-08 16:52:00